Location: Wapato
(46.4478°N, 120.4212°W)
Time: 14:23:25
(UTC+00:00)

Explorer 7 - Pass Details

Date: 13 May 2026
Orbit: 426 x 534 km, 50.2° (Epoch: 8 June)

Event Time Altitude Azimuth Distance (km) Brightness Sun altitude
Rises 18:28:26 0° 292° (WNW) 2,570 9.9 56.5°
Reaches altitude 10° 18:30:35 10° 293° (WNW) 1,705 9.1 56.8°
Maximum altitude 18:34:28 90° 342° (NNW) 517 7.9 57.2°
Drops below altitude 10° 18:38:29 10° 114° (ESE) 1,756 10.0 57.6°
Sets 18:40:43 0° 114° (ESE) 2,655 10.7 57.9°
